EHI
0 0 1 5 7 7 4 3 2 1 0 0 0 0 0 0 2 6 7 4 1 0 0 0 0 0 0 0 0 0 0 0 0 0 0 0 0 0 0 0 0 0 0
1 0 1 3 5 4 2 1 1 0 0 0 0 0 0 0 1 2 3 2 0 0 0 0 0 0 0 0 0 0 0 0 0 0 0 0 0 0 0 0 0 0 0
1 0 0 1 1 1 0 0 0 0 0 0 0 0 0 0 0 0 0 0 0 0 0 0 0 0 0 0 0 0 0 0 0 0 0 0 0 0 0 0 0 0 0
1 0 0 0 0 0 0 0 0 0 0 0 0 0 0 0 0 2 2 1 0 0 0 0 0 0 0 0 0 0 0 0 0 0 0 0 0 0 0 0 0 0 0
0 0 0 0 0 1 4 4 2 1 2 5 6 4 2 1 1 4 5 2 0 0 0 0 0 0 0 0 0 0 0 0 0 0 0 0 0 0 0 0 0 0 0
0 0 0 0 1 5 14 17 12 9 16 27 28 19 9 2 1 2 4 2 0 0 0 0 0 0 0 0 0 0 0 0 0 0 0 0 0 0 0 1 3 6 7
0 0 0 1 3 9 24 33 27 25 40 57 56 38 16 4 0 0 1 0 0 0 0 0 0 0 0 0 0 0 0 0 0 0 0 0 0 0 0 2 6 10 13
0 0 2 5 9 14 25 33 31 32 45 57 56 38 15 2 0 0 0 0 0 0 0 0 0 0 0 0 0 0 0 0 0 0 0 0 0 0 0 1 3 6 7
0 1 6 12 13 13 15 17 17 18 23 28 29 20 7 1 0 0 0 0 0 0 0 0 0 0 0 0 0 0 0 0 0 0 0 0 0 0 0 0 0 0 0
1 2 8 13 11 6 5 4 4 4 4 6 7 5 1 0 0 0 0 0 0 0 0 0 0 0 0 0 0 0 0 0 0 0 0 0 0 0 0 0 0 0 0
2 2 4 6 4 1 0 1 1 1 0 1 1 0 0 0 0 0 0 0 0 0 0 0 0 0 0 0 0 0 0 0 0 0 0 0 0 0 0 0 0 0 0
2 1 0 0 0 0 0 0 0 0 0 0 0 0 0 0 0 0 0 0 0 0 0 0 0 0 0 0 0 0 0 0 0 0 0 0 0 0 0 0 0 0 0
2 1 0 0 0 0 0 0 0 0 0 0 0 0 0 0 0 0 0 0 0 0 0 0 0 0 0 0 0 0 0 0 0 0 0 0 0 0 0 0 0 0 0
2 2 2 1 0 0 0 0 0 0 0 0 0 0 0 0 0 0 0 0 0 0 0 0 0 0 0 0 0 0 0 0 0 0 0 0 0 0 0 0 0 0 0
9 7 5 3 1 0 0 0 0 0 0 0 0 0 0 0 0 0 0 0 0 0 0 0 0 0 0 0 0 0 0 0 0 0 0 0 0 0 0 0 0 0 0
16 12 9 7 3 1 0 0 0 0 0 0 0 0 0 0 0 0 0 0 0 0 0 0 0 0 0 0 0 0 0 0 0 0 0 0 0 0 0 0 0 0 0
17 15 14 12 6 1 0 0 0 0 0 0 0 0 0 0 0 0 0 0 0 0 0 0 0 0 0 0 0 0 0 0 0 0 0 0 0 0 0 0 0 0 0
14 14 15 13 6 1 0 0 0 0 0 0 0 0 0 0 0 0 0 0 0 0 0 0 0 0 0 0 0 0 0 0 0 0 0 0 0 0 0 0 0 1 1
10 11 11 9 5 1 0 0 0 0 0 0 0 0 0 0 0 0 0 0 0 0 0 0 0 0 0 0 0 0 0 0 0 0 0 0 0 0 0 0 0 1 1
6 5 5 4 2 0 0 0 0 0 0 0 0 0 0 0 0 0 0 0 0 0 0 0 0 0 0 0 0 0 0 0 0 0 0 0 0 0 0 0 0 0 1
2 2 1 1 0 0 0 0 0 0 0 0 0 0 0 0 0 0 0 0 0 0 0 0 0 0 0 0 0 0 0 0 0 0 0 0 0 0 0 0 0 0 0
0 0 0 0 0 0 0 0 0 0 0 0 0 0 0 0 0 0 0 0 0 0 0 0 0 0 0 0 0 0 0 0 0 0 0 0 0 0 0 0 0 0 0
0 0 0 0 0 0 0 0 0 0 0 0 0 0 0 0 0 0 0 0 0 0 0 0 0 0 0 0 0 0 0 0 0 0 0 0 0 0 0 0 0 0 0
0 0 0 0 0 0 0 0 0 0 0 0 0 0 0 0 0 0 0 0 0 0 0 0 0 0 0 0 0 0 0 0 0 0 0 0 0 0 0 0 0 0 0
0 0 0 0 0 0 0 0 0 0 0 0 0 0 0 0 0 0 0 0 0 0 0 0 0 0 0 0 0 0 0 0 0 0 0 0 0 0 0 0 0 0 0
0 0 0 0 0 0 0 0 0 0 0 0 0 0 0 0 0 0 0 0 0 0 0 0 0 0 0 0 0 0 0 0 0 0 0 0 0 0 0 0 0 0 0
Wind_Speed
5 4 9 10 11 11 10 10 11 11 11 11 10 10 10 10 10 10 11 12 11 11 12 11 12 11 11 10 8 7 6 6 5 3 3 5 6 7 8 8 9 9 11
9 6 10 11 11 10 10 10 11 11 10 10 10 10 9 9 8 8 8 9 9 10 11 10 10 10 10 9 8 7 6 5 3 3 2 4 6 6 5 5 8 8 12
10 7 10 12 12 11 10 10 10 10 10 10 10 10 9 9 8 7 7 7 7 8 9 8 8 7 6 5 5 4 3 2 2 2 2 3 5 8 7 5 6 11 11
10 7 9 12 11 12 11 11 10 11 11 10 10 9 9 9 9 8 8 8 8 8 8 7 6 5 3 2 1 0 1 2 3 1 1 3 5 8 7 6 5 9 11
9 7 10 13 12 12 12 12 11 12 12 11 10 9 8 7 8 8 9 10 10 9 9 8 6 5 3 2 1 1 2 3 3 1 2 4 3 6 6 7 8 9 8
10 8 10 14 13 12 13 13 12 13 12 11 10 9 8 7 6 7 9 10 10 8 8 7 6 5 4 2 1 2 3 4 2 0 1 1 0 2 5 5 6 9 8
9 6 8 12 12 11 12 12 11 11 10 10 9 8 7 7 6 6 8 9 9 8 8 7 5 4 3 1 2 4 5 7 3 2 2 1 1 1 2 2 3 6 8
9 6 6 11 12 11 11 11 10 10 10 9 8 7 6 5 5 5 6 7 8 7 7 5 3 2 0 2 3 4 3 4 4 4 3 2 2 1 0 1 1 3 6
10 7 5 6 8 10 10 9 8 8 8 8 7 6 5 4 4 5 5 7 7 6 5 3 2 2 1 2 4 4 3 4 4 2 3 1 2 3 2 1 2 1 1
8 7 6 6 5 5 6 8 8 7 7 7 6 6 5 4 4 4 3 5 6 6 5 4 5 4 3 4 6 6 4 3 2 2 2 3 6 5 4 3 4 4 4
7 5 6 6 5 5 5 6 7 8 8 7 6 7 5 2 1 2 4 6 7 7 6 6 6 5 4 5 8 8 5 1 1 2 2 6 8 7 6 5 5 6 6
5 4 5 5 6 6 5 4 3 3 4 4 4 5 4 3 3 3 5 7 7 7 6 6 6 6 5 3 5 7 2 3 3 3 4 10 9 8 7 7 7 7 8
7 6 6 7 7 6 4 4 3 2 3 3 4 4 3 3 2 2 1 2 3 4 2 3 4 3 3 3 3 4 4 3 3 4 6 13 12 11 11 10 9 10 10
7 7 8 8 7 6 5 4 3 3 3 3 4 5 4 3 3 3 2 2 3 2 2 2 2 4 4 5 5 5 5 4 4 4 6 14 14 15 15 13 13 14 14
11 11 11 10 9 7 5 4 4 4 4 4 3 3 4 3 3 3 3 3 4 3 3 2 3 3 4 4 4 4 4 4 4 4 4 11 12 14 16 16 16 17 17
18 17 14 12 8 6 4 3 3 3 3 3 2 3 3 3 2 2 2 2 2 2 3 3 3 2 3 3 4 4 4 4 3 3 3 5 8 11 14 17 19 20 20
16 12 9 8 6 6 5 4 3 2 3 2 2 3 3 3 3 2 2 1 1 2 3 2 1 1 2 3 4 5 4 4 4 5 5 4 5 9 13 15 18 19 21
7 4 4 5 7 7 6 6 4 4 3 2 2 2 3 4 4 4 3 3 4 2 2 2 3 3 3 3 3 4 4 3 5 5 4 5 4 5 8 14 16 19 21
5 6 5 5 7 7 7 6 6 5 5 4 4 5 6 7 6 4 3 3 4 4 3 3 3 2 3 4 4 4 3 4 5 7 8 8 7 7 6 10 17 20 21
7 7 7 7 7 7 5 5 5 6 5 6 6 6 7 6 6 5 3 4 4 3 3 2 2 2 1 3 5 5 4 4 4 5 7 7 7 9 9 9 9 10 17
7 8 8 8 6 5 4 4 4 4 4 4 5 6 6 7 7 5 4 5 5 4 4 5 4 4 4 4 4 4 4 3 4 4 5 6 9 10 10 10 8 8 8
9 10 10 10 9 7 5 3 3 4 3 2 3 5 7 7 8 7 7 5 5 5 6 7 5 4 3 4 3 3 5 5 3 5 6 7 8 8 8 9 8 8 8
11 10 10 10 10 9 7 5 5 4 3 3 4 4 6 7 7 6 6 4 4 4 4 5 6 5 3 3 3 2 3 5 4 3 3 4 6 7 8 8 6 6 6
11 11 12 11 11 9 8 8 7 5 3 3 2 3 4 6 5 5 5 5 5 5 5 5 4 3 3 3 2 0 3 4 4 4 2 2 5 6 8 9 7 6 6
11 11 10 11 10 8 8 8 7 5 3 3 4 5 5 5 6 7 7 6 5 4 4 3 3 3 1 1 2 2 3 3 4 4 5 4 4 5 7 8 6 6 7
10 10 10 10 8 7 7 6 6 6 6 6 5 5 5 4 5 6 6 4 4 3 2 2 2 2 2 3 2 2 2 3 4 4 5 6 6 6 7 7 6 6 5
Wind_Direction
121 139 132 116 112 115 123 128 126 126 124 121 118 114 109 105 105 106 110 113 115 117 122 126 128 131 132 131 127 119 106 93 85 77 116 144 146 141 143 143 138 140 145
131 140 129 120 115 114 123 128 128 128 127 126 126 124 119 114 111 109 109 115 118 123 128 131 131 132 136 140 139 132 120 110 120 135 159 173 165 149 149 154 145 151 155
130 139 130 125 123 120 124 129 129 132 131 129 127 126 124 124 122 115 108 109 113 116 121 125 130 135 143 148 143 133 127 142 189 200 214 207 180 166 157 161 163 161 159
135 136 131 127 126 124 123 129 132 134 134 130 127 127 130 134 134 132 129 129 130 131 131 131 135 142 157 167 162 345 330 292 279 288 104 157 172 162 160 172 164 170 168
131 130 134 132 133 130 126 130 137 139 139 137 134 135 139 143 145 144 142 142 142 145 148 148 153 160 179 206 233 327 345 324 316 63 94 109 133 163 175 172 151 144 158
130 135 139 138 137 133 128 130 139 143 143 143 143 143 143 144 149 153 153 151 146 147 150 152 152 145 137 114 52 3 345 335 345 112 122 93 74 218 194 183 156 132 131
132 132 138 138 134 131 128 129 135 142 143 143 142 140 139 138 145 159 161 155 149 148 142 140 142 143 136 74 344 341 349 345 17 90 104 64 353 144 135 86 71 100 102
126 122 128 135 133 130 127 127 133 138 139 140 139 136 139 144 150 156 158 156 151 144 140 139 148 169 121 350 323 324 353 25 69 92 88 56 355 331 147 77 68 103 110
125 123 116 123 131 133 130 131 137 138 139 144 147 145 148 150 156 164 170 167 155 142 139 147 202 228 260 304 301 307 340 71 101 134 146 166 241 256 254 302 306 288 199
125 127 120 111 110 116 129 144 153 154 154 156 155 157 163 164 170 169 153 167 166 167 178 203 220 230 254 292 305 315 328 63 120 157 184 209 219 231 235 247 261 267 263
123 121 119 121 129 134 145 161 167 170 168 162 160 167 164 170 200 194 195 191 184 187 200 215 230 251 275 300 308 310 327 333 246 235 238 231 219 228 237 237 249 265 270
136 134 133 145 158 165 165 156 170 172 169 167 176 173 169 183 205 205 213 192 192 204 213 224 244 263 274 291 298 301 299 279 267 253 250 249 238 238 249 248 249 260 273
155 167 168 173 176 176 166 165 174 171 171 192 203 182 168 174 187 184 204 226 236 234 236 259 262 266 270 273 276 275 267 257 252 256 258 260 253 247 248 245 242 241 245
159 191 188 188 187 185 169 175 183 185 190 194 200 182 172 182 184 191 203 217 242 244 234 261 267 269 278 278 274 270 266 255 249 249 255 261 258 247 245 242 239 238 235
167 189 193 191 189 181 164 177 184 190 188 171 161 172 178 179 189 211 225 228 243 241 230 249 261 263 264 267 264 262 268 264 258 248 258 269 263 248 249 252 251 249 246
175 182 186 182 177 158 143 144 160 163 146 133 143 135 113 124 147 174 205 224 245 222 202 204 209 223 251 268 291 302 299 292 281 277 267 281 278 263 256 256 258 257 256
175 176 169 157 134 118 105 89 66 67 107 125 130 106 97 103 102 77 47 30 302 235 213 214 238 334 330 332 324 318 309 302 301 301 298 291 289 287 279 268 264 265 266
161 134 104 124 104 92 87 81 71 65 65 61 55 47 47 43 47 46 33 16 0 356 347 350 2 1 350 337 312 298 296 299 305 307 307 303 295 289 287 285 278 272 267
69 61 57 76 92 91 91 87 81 74 60 49 45 35 32 32 38 55 52 37 35 42 30 15 8 354 327 320 304 299 316 325 325 328 327 324 318 309 305 306 302 298 291
59 63 68 76 86 93 88 80 71 63 54 49 46 39 40 37 35 48 51 37 37 39 15 2 348 333 322 321 326 332 323 324 335 338 338 336 326 321 322 317 309 303 303
66 69 69 74 67 72 69 67 65 56 41 37 33 30 32 32 31 39 26 20 19 21 8 0 357 353 1 357 1 334 318 333 344 348 349 341 331 332 332 329 325 319 309
89 83 73 70 65 61 65 67 76 83 64 52 26 27 28 30 29 40 37 32 24 21 20 17 16 2 357 17 19 342 327 327 346 353 342 328 327 331 332 335 331 339 344
98 94 90 82 74 66 64 64 57 54 44 27 19 21 19 32 40 48 46 45 38 45 37 31 31 28 2 1 20 3 319 291 309 279 306 312 339 331 326 318 324 341 339
101 97 90 85 80 73 71 73 72 69 58 22 12 19 17 28 33 38 32 33 36 43 46 38 49 34 19 349 338 298 245 259 282 289 254 286 300 300 299 304 306 309 313
99 93 88 84 78 74 73 75 73 64 48 21 16 17 9 11 28 38 44 42 38 36 36 30 23 17 355 301 282 272 276 274 258 278 289 279 273 269 276 284 288 295 302
91 87 84 81 73 69 72 72 76 72 57 42 27 17 11 13 28 33 40 41 36 23 8 353 345 359 341 317 302 279 264 263 278 278 286 294 283 277 278 277 277 277 283